Weather History for Cincinnati, OH

Change the Weather History Date:

Wednesday, December 25, 2013

  Actual Average Record
Temperature  
Mean Temperature 28 °F -  
Max Temperature 36 °F 36 °F 65 °F (1982)
Min Temperature 19 °F 22 °F -8 °F (1983)
Degree Days  
Heating Degree Days 38    
Moisture  
Dew Point 15 °F    
Average Humidity 60    
Maximum Humidity 78    
Minimum Humidity 41    
Precipitation  
Precipitation 0.00 in - - ()
Sea Level Pressure  
Sea Level Pressure 30.39 in    
Wind  
Wind Speed 5 mph (South)    
Max Wind Speed 14 mph    
Max Gust Speed -    
Visibility 10 miles    
Events      
Averages and records for this station are not official NWS values.
T = Trace of Precipitation, MM = Missing Value Source: NWS Daily Summary

Daily Weather History Graph

Daily Weather History Graph

Search for Another Location

Airport:

Trip Planner

Search our weather history database for the weather conditions in past years. The results will help you decide how hot, cold, wet, or windy it might be!

Date:

Astronomy

Dec. 25, 2013 Rise Set
Actual Time 7:55 AM EST 5:20 PM EST
Civil Twilight 7:25 AM EST 5:50 PM EST
Nautical Twilight 6:51 AM EST 6:24 PM EST
Astronomical Twilight 6:18 AM EST 6:57 PM EST
Moon 12:24 AM EST 12:21 PM EST
Length of Visible Light 10h 25m
Length of Day
9h 25m
Waning Gibbous, 49% of the Moon is Illuminated
Dec 25
Waning Gibbous
Jan 1
New
Jan 7
First Quarter
Jan 15
Full
Jan 24
Last Quarter

Hourly Weather History & Observations

Time (EST) Temp. Windchill Dew Point Humidity Pressure Visibility Wind Dir Wind Speed Gust Speed Precip Events Conditions
12:53 AM 19.9 °F - 12.9 °F 74% 30.52 in 10.0 mi Calm Calm - N/A   Clear
1:53 AM 19.9 °F - 14.0 °F 78% 30.51 in 10.0 mi Calm Calm - N/A   Partly Cloudy
2:53 AM 21.0 °F 13.4 °F 12.9 °F 71% 30.52 in 10.0 mi SSE 5.8 mph - N/A   Overcast
3:53 AM 19.9 °F 12.1 °F 12.0 °F 71% 30.52 in 10.0 mi SSE 5.8 mph - N/A   Clear
4:53 AM 21.0 °F 13.4 °F 12.0 °F 68% 30.50 in 10.0 mi SE 5.8 mph - N/A   Clear
5:53 AM 19.9 °F 13.4 °F 12.0 °F 71% 30.51 in 10.0 mi SE 4.6 mph - N/A   Clear
6:53 AM 19.9 °F 10.1 °F 12.0 °F 71% 30.49 in 10.0 mi SSE 8.1 mph - N/A   Clear
7:53 AM 19.9 °F - 12.0 °F 71% 30.49 in 10.0 mi Calm Calm - N/A   Clear
8:53 AM 21.0 °F 12.4 °F 12.0 °F 68% 30.48 in 10.0 mi SSE 6.9 mph - N/A   Clear
9:53 AM 21.9 °F 12.5 °F 12.0 °F 66% 30.47 in 10.0 mi South 8.1 mph - N/A   Mostly Cloudy
10:53 AM 26.1 °F 18.4 °F 12.9 °F 58% 30.46 in 10.0 mi South 6.9 mph - N/A   Partly Cloudy
11:53 AM 30.0 °F 19.5 °F 14.0 °F 51% 30.41 in 10.0 mi South 13.8 mph - N/A   Clear
12:53 PM 32.0 °F 22.5 °F 14.0 °F 48% 30.35 in 10.0 mi SSW 12.7 mph - N/A   Scattered Clouds
1:53 PM 34.0 °F 28.0 °F 14.0 °F 44% 30.32 in 10.0 mi South 6.9 mph - N/A   Scattered Clouds
2:53 PM 36.0 °F 29.0 °F 14.0 °F 41% 30.30 in 10.0 mi SW 9.2 mph - N/A   Overcast
3:53 PM 36.0 °F 28.5 °F 14.0 °F 41% 30.30 in 10.0 mi SW 10.4 mph - N/A   Overcast
4:53 PM 35.1 °F 29.3 °F 17.1 °F 48% 30.30 in 10.0 mi SSW 6.9 mph - N/A   Overcast
5:53 PM 35.1 °F 31.0 °F 18.0 °F 50% 30.29 in 10.0 mi SW 4.6 mph - N/A   Overcast
6:53 PM 35.1 °F 30.1 °F 18.0 °F 50% 30.28 in 10.0 mi SW 5.8 mph - 0.00 in   Overcast
7:53 PM 34.0 °F 31.0 °F 21.9 °F 61% 30.27 in 10.0 mi SSW 3.5 mph - N/A   Overcast
8:53 PM 34.0 °F - 23.0 °F 64% 30.27 in 10.0 mi Calm Calm - N/A   Overcast
9:53 PM 34.0 °F - 24.1 °F 67% 30.26 in 10.0 mi Calm Calm - N/A   Overcast
10:53 PM 35.1 °F 30.1 °F 21.0 °F 57% 30.24 in 10.0 mi SSW 5.8 mph - N/A   Overcast
11:53 PM 35.1 °F 29.3 °F 21.0 °F 57% 30.24 in 10.0 mi SW 6.9 mph - N/A   Overcast